{"data":{"norad_id":62594,"intl_designator":"2025-008H","name":"STARLINK-11416 [DTC]","alt_names":[],"object_type":"PAYLOAD","status":"ACTIVE","operator":null,"country":"US","launch_date":"2025-01-13","launch_site_code":"AFETR","launch_vehicle":null,"mission":null,"orbit_class":"UNKNOWN","rcs_meters":null,"size_class":null,"mass_kg":null,"dimensions":null,"purposes":["comms"],"wikipedia_slug":null,"has_3d_model":false,"image_url":null,"decayed_at":null,"tle_current":{"epoch":"2026-05-25T00:22:29.884224Z","epoch_age_seconds":76997,"freshness":"FRESH","line1":"1 62594U 25008H   26145.01562366  .00287465  00000+0  13088-2 0  9991","line2":"2 62594  42.9934  22.8686 0010199 246.2345 113.7457 15.82183230 79150","mean_motion":15.8218323,"eccentricity":0.0010199,"inclination_deg":42.9934,"raan_deg":22.8686,"arg_perigee_deg":246.2345,"mean_anomaly_deg":113.7457,"bstar":0.0013088,"rev_number":7915,"period_min":91.013478887651,"perigee_km":317.4320577162,"apogee_km":331.10362310967,"semimajor_km":6702.4048404129,"source":"CELESTRAK","updated_at":"2026-05-25T13:38:19.734590Z"}}}